Tracking 20241 objects as of 28-Jan-2020
HD Live streaming from Space Station
objects crossing your sky now

ECAMSAT

Track ECAMSAT now!
10-day predictions
ECAMSAT is classified as:


NORAD ID: 43019
Int'l Code: 1998-067NG
Perigee: 380.9 km
Apogee: 385.9 km
Inclination: 51.6 °
Period: 92.1 minutes
Semi major axis: 6754 km
RCS: Unknown
Launch date: November 20, 1998
Source: United States (US)
Launch site: TYURATAM MISSILE AND SPACE COMPLEX (TTMTR)

Uplink (MHz):
Downlink (MHz): 437.095
Beacon (MHz):
Mode: 1200bps AFSK
Call sign: KE6QLL
Status: Active

aabbcc
Your satellite tracking list
Your tracking list is empty




NASA's NSSDC Master Catalog

Two Line Element Set (TLE):
1 43019U 98067NG  20028.27178586  .00005197  00000-0  59698-4 0  9996
2 43019  51.6403 286.8792 0003720 219.9324 140.1398 15.63960266210689
Source of the keplerian elements: AMSAT